DW6016 Weather Reports


time (UTC)temp
C
wind
direction
speed
KPH
gust
KPH
rain 1hr
cm
rain 24hr
cm
rain mn
cm
humidity
%
barometer
mb
20260510084949 12 299 0.0 0.0 0.00 0.00 0.00 89 1017.2
20260510084446 12 299 0.0 0.0 0.00 0.00 0.00 89 1016.9
20260510083943 12 299 0.0 0.0 0.00 0.00 0.00 88 1016.8
20260510083439 12 299 0.0 0.0 0.00 0.00 0.00 88 1016.9
20260510082934 12 299 0.0 0.0 0.00 0.00 0.00 87 1016.8
20260510082433 12 299 0.0 0.0 0.00 0.00 0.00 87 1016.8
20260510081931 12 299 0.0 0.0 0.00 0.00 0.00 86 1016.8
20260510081427 12 299 0.0 0.0 0.00 0.00 0.00 86 1016.8
20260510080924 12 299 0.0 0.0 0.00 0.00 0.00 86 1016.9
20260510080423 12 299 0.0 0.0 0.00 0.00 0.00 85 1017.0
20260510075920 13 299 0.0 0.0 0.00 0.00 0.00 84 1016.6
20260510075418 13 299 0.0 0.0 0.00 0.00 0.00 83 1016.7
20260510074914 13 299 0.0 0.0 0.00 0.00 0.00 82 1017.0
20260510074412 13 299 0.0 0.0 0.00 0.00 0.00 81 1016.8
20260510073908 13 299 0.0 0.0 0.00 0.00 0.00 81 1016.9
20260510073403 13 299 0.0 0.0 0.00 0.00 0.00 81 1016.8
20260510072900 13 299 0.0 0.0 0.00 0.00 0.00 81 1016.7
20260510072357 14 299 0.0 0.0 0.00 0.00 0.00 79 1016.9
20260510071852 14 299 0.0 0.0 0.00 0.00 0.00 78 1016.7
20260510071349 14 299 0.0 0.0 0.00 0.00 0.00 78 1016.8
20260510070848 15 299 0.0 0.0 0.00 0.00 0.00 77 1016.6
20260510070344 15 299 0.0 0.0 0.00 0.00 0.00 77 1016.9
20260510065844 15 299 0.0 0.0 0.00 0.00 0.00 75 1016.8
20260510065341 15 299 0.0 0.0 0.00 0.00 0.00 75 1016.7
20260510064838 15 299 0.0 0.0 0.00 0.00 0.00 75 1016.6
20260510064336 15 299 0.0 0.0 0.00 0.00 0.00 75 1016.6
20260510063832 15 299 0.0 0.0 0.00 0.00 0.00 74 1016.7
20260510063329 15 299 0.0 0.0 0.00 0.00 0.00 73 1016.6
20260510062825 15 299 0.0 0.0 0.00 0.00 0.00 72 1016.6
20260510062321 16 299 0.0 0.0 0.00 0.00 0.00 72 1016.5
20260510061816 16 299 0.0 0.0 0.00 0.00 0.00 71 1016.5
20260510061314 16 299 0.0 0.0 0.00 0.00 0.00 70 1016.5
20260510060809 16 299 0.0 0.0 0.00 0.00 0.00 68 1016.6
20260510060307 17 299 0.0 0.0 0.00 0.00 0.00 67 1016.7
20260510055803 17 300 0.0 0.0 0.00 0.00 0.00 66 1016.4
20260510055306 17 310 0.0 0.0 0.00 0.00 0.00 64 1016.5
20260510054801 18 277 0.0 0.0 0.00 0.00 0.00 63 1016.4
20260510054257 18 276 0.0 0.0 0.00 0.00 0.00 63 1016.5
20260510053752 18 284 1.6 1.6 0.00 0.00 0.00 62 1016.5
20260510053248 18 289 0.0 0.0 0.00 0.00 0.00 63 1016.3
20260510052744 18 254 1.6 1.6 0.00 0.00 0.00 63 1016.4
20260510052240 18 307 1.6 1.6 0.00 0.00 0.00 63 1016.6
20260510051736 18 292 0.0 0.0 0.00 0.00 0.00 62 1016.5
20260510051233 18 311 0.0 1.6 0.00 0.00 0.00 62 1016.7
20260510050730 18 318 0.0 0.0 0.00 0.00 0.00 62 1016.6
20260510050227 18 293 0.0 1.6 0.00 0.00 0.00 62 1016.7
20260510045724 18 305 0.0 0.0 0.00 0.00 0.00 62 1016.4
20260510045220 19 300 0.0 1.6 0.00 0.00 0.00 62 1016.2
20260510044717 18 310 1.6 3.2 0.00 0.00 0.00 61 1016.4
20260510044215 19 296 0.0 0.0 0.00 0.00 0.00 61 1016.2
20260510043710 18 301 0.0 0.0 0.00 0.00 0.00 61 1016.4
20260510043207 19 294 0.0 0.0 0.00 0.00 0.00 61 1016.3
20260510042704 19 292 0.0 0.0 0.00 0.00 0.00 61 1016.2
20260510042200 19 316 0.0 0.0 0.00 0.00 0.00 60 1016.0
20260510041657 19 308 0.0 0.0 0.00 0.00 0.00 60 1016.1
20260510041154 19 299 0.0 1.6 0.00 0.00 0.00 60 1015.9
20260510040651 19 312 1.6 1.6 0.00 0.00 0.00 59 1015.6
20260510040148 20 301 0.0 1.6 0.00 0.00 0.00 58 1015.7
20260510035643 20 297 0.0 1.6 0.00 0.00 0.00 57 1015.8
20260510035139 20 308 0.0 0.0 0.00 0.00 0.00 58 1015.8
20260510034636 20 299 0.0 0.0 0.00 0.00 0.00 56 1015.6
20260510034133 20 313 0.0 0.0 0.00 0.00 0.00 56 1015.5
20260510033629 20 306 0.0 0.0 0.00 0.00 0.00 55 1015.7
20260510033127 20 291 0.0 1.6 0.00 0.00 0.00 55 1015.5
20260510032623 20 304 1.6 1.6 0.00 0.00 0.00 55 1015.5
20260510032119 20 304 0.0 0.0 0.00 0.00 0.00 55 1015.5
20260510031614 20 293 0.0 1.6 0.00 0.00 0.00 54 1015.6
20260510031111 20 315 0.0 0.0 0.00 0.00 0.00 53 1015.4
20260510030605 21 295 0.0 1.6 0.00 0.00 0.00 53 1015.4
20260510030103 21 292 0.0 0.0 0.00 0.00 0.00 53 1015.5
20260510025600 21 292 0.0 0.0 0.00 0.00 0.00 51 1015.6
20260510025058 21 302 0.0 0.0 0.00 0.00 0.00 51 1015.5
20260510024554 21 307 1.6 3.2 0.00 0.00 0.00 50 1015.3
20260510024050 22 301 0.0 0.0 0.00 0.00 0.00 49 1015.6
20260510023547 22 302 0.0 0.0 0.00 0.00 0.00 48 1015.5
20260510023044 22 317 1.6 1.6 0.00 0.00 0.00 47 1015.5
20260510022543 22 298 0.0 0.0 0.00 0.00 0.00 46 1015.5
20260510022038 22 243 1.6 1.6 0.00 0.00 0.00 46 1015.7
20260510021535 22 300 0.0 1.6 0.00 0.00 0.00 43 1015.4
20260510021032 22 299 0.0 0.0 0.00 0.00 0.00 41 1015.6
20260510020526 22 259 1.6 1.6 0.00 0.00 0.00 41 1015.7
20260510020022 22 287 0.0 0.0 0.00 0.00 0.00 41 1015.6
20260510015518 23 303 0.0 0.0 0.00 0.00 0.00 39 1015.5
20260510015014 23 303 0.0 0.0 0.00 0.00 0.00 41 1015.5
20260510014511 23 304 0.0 1.6 0.00 0.00 0.00 42 1015.5
20260510014008 23 302 1.6 1.6 0.00 0.00 0.00 41 1015.6
20260510013502 23 293 0.0 1.6 0.00 0.00 0.00 40 1015.8
20260510012958 24 302 0.0 0.0 0.00 0.00 0.00 41 1015.6
20260510012447 24 291 1.6 1.6 0.00 0.00 0.00 40 1015.8
20260510011942 24 307 0.0 0.0 0.00 0.00 0.00 40 1016.0
20260510011437 24 302 0.0 1.6 0.00 0.00 0.00 38 1016.0
20260510010934 25 303 0.0 1.6 0.00 0.00 0.00 36 1015.7
20260510010431 25 298 1.6 1.6 0.00 0.00 0.00 35 1015.9
20260510005928 25 302 1.6 1.6 0.00 0.00 0.00 33 1015.6
20260510005424 25 302 0.0 1.6 0.00 0.00 0.00 32 1015.8
20260510004921 25 304 0.0 0.0 0.00 0.00 0.00 31 1015.7
20260510004419 25 307 1.6 3.2 0.00 0.00 0.00 30 1015.9
20260510003916 25 304 0.0 1.6 0.00 0.00 0.00 29 1015.9
20260510003414 25 305 1.6 1.6 0.00 0.00 0.00 31 1015.7
20260510002912 25 293 3.2 4.8 0.00 0.00 0.00 29 1015.9
20260510002410 25 296 0.0 1.6 0.00 0.00 0.00 30 1016.0
20260510001906 25 306 0.0 0.0 0.00 0.00 0.00 32 1016.2
20260510001404 25 307 1.6 1.6 0.00 0.00 0.00 32 1016.0
20260510000900 25 306 1.6 1.6 0.00 0.00 0.00 31 1015.8
20260510000357 25 300 1.6 1.6 0.00 0.00 0.00 29 1016.0
20260509235853 25 307 1.6 1.6 0.00 0.00 0.00 31 1016.0
20260509235350 25 312 0.0 1.6 0.00 0.00 0.00 33 1016.1
20260509234846 25 309 3.2 3.2 0.00 0.00 0.00 29 1016.2
20260509234343 25 298 0.0 1.6 0.00 0.00 0.00 29 1016.1
20260509233842 25 303 0.0 0.0 0.00 0.00 0.00 30 1016.3
20260509233339 25 294 1.6 1.6 0.00 0.00 0.00 31 1016.3
20260509232834 25 313 0.0 0.0 0.00 0.00 0.00 29 1016.2
20260509232333 25 310 0.0 0.0 0.00 0.00 0.00 27 1016.2
20260509231828 25 293 0.0 0.0 0.00 0.00 0.00 31 1016.5
20260509231325 25 293 1.6 1.6 0.00 0.00 0.00 28 1016.5
20260509230823 25 306 0.0 1.6 0.00 0.00 0.00 31 1016.6
20260509230320 25 300 0.0 1.6 0.00 0.00 0.00 30 1016.6
20260509225815 25 296 0.0 1.6 0.00 0.00 0.00 33 1017.0
20260509225312 24 297 1.6 1.6 0.00 0.00 0.00 34 1016.8
20260509224808 25 298 3.2 3.2 0.00 0.00 0.00 31 1017.1
20260509224305 24 312 3.2 3.2 0.00 0.00 0.00 30 1017.1
20260509223801 24 347 0.0 1.6 0.00 0.00 0.00 30 1017.0
20260509223258 24 332 3.2 3.2 0.00 0.00 0.00 34 1017.1
20260509222755 24 293 4.8 4.8 0.00 0.00 0.00 33 1017.4
20260509222250 23 106 1.6 3.2 0.00 0.00 0.00 31 1017.4
20260509221746 23 283 3.2 3.2 0.00 0.00 0.00 29 1017.6
20260509221243 23 286 1.6 1.6 0.00 0.00 0.00 34 1017.7
20260509220739 23 318 0.0 1.6 0.00 0.00 0.00 36 1017.9
20260509220236 23 316 0.0 1.6 0.00 0.00 0.00 35 1017.6
20260509215731 23 299 1.6 1.6 0.00 0.00 0.00 37 1017.7
20260509215228 23 308 0.0 0.0 0.00 0.00 0.00 38 1017.8
20260509214725 23 307 4.8 4.8 0.00 0.00 0.00 39 1017.9
20260509214222 22 285 1.6 1.6 0.00 0.00 0.00 41 1017.9
20260509213719 22 296 3.2 3.2 0.00 0.00 0.00 41 1017.9
20260509213214 23 316 1.6 3.2 0.00 0.00 0.00 43 1018.4
20260509212712 22 321 1.6 3.2 0.00 0.00 0.00 44 1018.3
20260509212209 22 304 1.6 3.2 0.00 0.00 0.00 44 1018.3
20260509211705 22 311 1.6 1.6 0.00 0.00 0.00 47 1018.2
20260509211201 23 299 1.6 1.6 0.00 0.00 0.00 48 1018.0
20260509210658 22 300 1.6 3.2 0.00 0.00 0.00 47 1018.1
20260509210155 22 305 1.6 3.2 0.00 0.00 0.00 48 1018.3
20260509205650 22 149 3.2 4.8 0.00 0.00 0.00 46 1018.3
20260509205150 22 322 1.6 1.6 0.00 0.00 0.00 48 1018.2
20260509204646 22 257 0.0 1.6 0.00 0.00 0.00 51 1018.5
20260509204143 22 302 3.2 3.2 0.00 0.00 0.00 51 1018.4
20260509203639 22 278 1.6 1.6 0.00 0.00 0.00 53 1018.5
20260509203137 22 326 0.0 1.6 0.00 0.00 0.00 51 1018.7
20260509202637 22 289 1.6 1.6 0.00 0.00 0.00 50 1018.6
20260509202133 23 283 1.6 1.6 0.00 0.00 0.00 52 1018.7
20260509201628 23 328 0.0 1.6 0.00 0.00 0.00 50 1018.7
20260509201126 23 301 1.6 1.6 0.00 0.00 0.00 49 1018.8
20260509200621 23 19 1.6 3.2 0.00 0.00 0.00 51 1018.9
20260509200117 22 180 1.6 3.2 0.00 0.00 0.00 52 1018.8
20260509195613 22 291 3.2 3.2 0.00 0.00 0.00 56 1019.1
20260509195107 22 294 1.6 3.2 0.00 0.00 0.00 52 1019.1
20260509194607 21 291 1.6 1.6 0.00 0.00 0.00 53 1019.1
20260509194105 21 283 1.6 1.6 0.00 0.00 0.00 54 1019.0
20260509193601 21 276 0.0 1.6 0.00 0.00 0.00 57 1019.3
20260509193057 21 96 1.6 3.2 0.00 0.00 0.00 57 1019.6
20260509192553 21 302 1.6 1.6 0.00 0.00 0.00 54 1019.3
20260509192048 21 304 1.6 1.6 0.00 0.00 0.00 56 1019.6
20260509191542 21 89 3.2 3.2 0.00 0.00 0.00 58 1019.6
20260509191039 21 299 3.2 3.2 0.00 0.00 0.00 59 1019.6
20260509190536 21 295 1.6 3.2 0.00 0.00 0.00 60 1019.7
20260509190034 21 282 4.8 4.8 0.00 0.00 0.00 58 1019.8
20260509185531 21 252 1.6 1.6 0.00 0.00 0.00 58 1019.8
20260509185027 20 292 1.6 1.6 0.00 0.00 0.00 60 1019.9
20260509184526 20 281 1.6 3.2 0.00 0.00 0.00 60 1020.0
20260509184022 20 305 1.6 1.6 0.00 0.00 0.00 61 1020.1
20260509183517 20 279 1.6 1.6 0.00 0.00 0.00 60 1020.1
20260509183013 21 272 1.6 1.6 0.00 0.00 0.00 59 1020.3
20260509182510 20 100 0.0 1.6 0.00 0.00 0.00 60 1020.2
20260509182007 20 284 1.6 1.6 0.00 0.00 0.00 63 1020.2
20260509181505 20 310 0.0 1.6 0.00 0.00 0.00 63 1020.3
20260509181002 19 313 0.0 1.6 0.00 0.00 0.00 63 1020.4
20260509180457 19 136 1.6 1.6 0.00 0.00 0.00 63 1020.3
20260509175955 19 289 0.0 1.6 0.00 0.00 0.00 64 1020.4
20260509175451 18 292 1.6 1.6 0.00 0.00 0.00 67 1020.4
20260509174947 18 283 0.0 0.0 0.00 0.00 0.00 69 1020.3
20260509174443 18 298 1.6 1.6 0.00 0.00 0.00 66 1020.5
20260509173938 18 290 3.2 3.2 0.00 0.00 0.00 68 1020.7
20260509173433 17 298 0.0 1.6 0.00 0.00 0.00 70 1020.8
20260509172930 17 298 1.6 1.6 0.00 0.00 0.00 69 1020.8
20260509172427 17 301 0.0 1.6 0.00 0.00 0.00 71 1020.8
20260509171922 17 296 1.6 1.6 0.00 0.00 0.00 71 1021.0
20260509171418 17 110 1.6 3.2 0.00 0.00 0.00 69 1021.1
20260509170914 17 330 0.0 1.6 0.00 0.00 0.00 70 1021.1
20260509170411 17 291 0.0 0.0 0.00 0.00 0.00 71 1021.1
20260509165907 17 323 0.0 1.6 0.00 0.00 0.00 72 1021.1
20260509165401 16 274 1.6 3.2 0.00 0.00 0.00 75 1021.2
20260509164857 16 152 3.2 3.2 0.00 0.00 0.00 73 1021.5
20260509164353 16 300 1.6 1.6 0.00 0.00 0.00 73 1021.4
20260509163849 16 300 1.6 1.6 0.00 0.00 0.00 75 1021.4
20260509163346 16 31 1.6 1.6 0.00 0.00 0.00 74 1021.5
20260509162845 16 269 1.6 3.2 0.00 0.00 0.00 74 1021.9
20260509162344 16 301 1.6 3.2 0.00 0.00 0.00 75 1022.0
20260509161840 16 301 1.6 3.2 0.00 0.00 0.00 74 1021.5
20260509161337 16 169 1.6 3.2 0.00 0.00 0.00 74 1022.2
20260509160832 16 312 1.6 1.6 0.00 0.00 0.00 74 1022.0
20260509160329 16 309 0.0 1.6 0.00 0.00 0.00 75 1022.2
20260509155824 16 298 0.0 1.6 0.00 0.00 0.00 78 1021.9
20260509155320 15 301 1.6 1.6 0.00 0.00 0.00 77 1022.1
20260509154817 15 155 3.2 3.2 0.00 0.00 0.00 76 1021.8
20260509154313 15 308 0.0 0.0 0.00 0.00 0.00 78 1021.9
20260509153810 14 312 0.0 0.0 0.00 0.00 0.00 81 1022.0
20260509153307 15 113 0.0 1.6 0.00 0.00 0.00 79 1022.1
20260509152804 15 326 0.0 0.0 0.00 0.00 0.00 79 1022.2
20260509152259 15 291 0.0 0.0 0.00 0.00 0.00 80 1022.4
20260509151757 14 308 1.6 3.2 0.00 0.00 0.00 80 1022.4
20260509151253 14 313 0.0 0.0 0.00 0.00 0.00 82 1022.5
20260509150752 13 107 3.2 3.2 0.00 0.00 0.00 82 1022.5
20260509150250 13 329 0.0 0.0 0.00 0.00 0.00 84 1022.7
20260509145746 13 295 1.6 1.6 0.00 0.00 0.00 85 1022.6
20260509145246 13 339 1.6 3.2 0.00 0.00 0.00 85 1022.4
20260509144743 12 306 1.6 1.6 0.00 0.00 0.00 88 1022.5
20260509144239 12 330 0.0 1.6 0.00 0.00 0.00 88 1022.4
20260509143737 12 330 0.0 1.6 0.00 0.00 0.00 89 1022.2
20260509143234 12 94 3.2 3.2 0.00 0.00 0.00 89 1022.3
20260509142730 11 322 1.6 1.6 0.00 0.00 0.00 95 1022.5
20260509142226 11 309 0.0 0.0 0.00 0.00 0.00 99 1022.5
20260509141722 11 308 0.0 0.0 0.00 0.00 0.00 99 1022.4
20260509141220 10 317 0.0 0.0 0.00 0.00 0.00 99 1022.4
20260509140716 10 317 0.0 0.0 0.00 0.00 0.00 99 1022.4
20260509140213 10 306 0.0 0.0 0.00 0.00 0.00 99 1022.6
20260509135710 9 299 0.0 0.0 0.00 0.00 0.00 99 1022.4
20260509135209 8 299 0.0 0.0 0.00 0.00 0.00 99 1022.4
20260509134705 8 298 0.0 0.0 0.00 0.00 0.00 99 1022.3
20260509134202 8 298 0.0 0.0 0.00 0.00 0.00 99 1022.2
20260509133659 8 298 0.0 0.0 0.00 0.00 0.00 99 1022.2
20260509133156 8 298 0.0 0.0 0.00 0.00 0.00 99 1022.3
20260509132655 7 298 0.0 0.0 0.00 0.00 0.00 99 1022.2
20260509132153 7 298 0.0 0.0 0.00 0.00 0.00 99 1022.1
20260509131649 7 298 0.0 0.0 0.00 0.00 0.00 99 1022.2
20260509131146 7 298 0.0 0.0 0.00 0.00 0.00 99 1022.2
20260509130641 7 298 0.0 0.0 0.00 0.00 0.00 99 1022.3
20260509130138 7 298 0.0 0.0 0.00 0.00 0.00 99 1022.0
20260509125635 7 298 0.0 0.0 0.00 0.00 0.00 99 1022.2
20260509125131 7 298 0.0 0.0 0.00 0.00 0.00 99 1022.0
20260509124628 7 298 0.0 0.0 0.00 0.00 0.00 99 1022.3
20260509124125 7 298 0.0 0.0 0.00 0.00 0.00 99 1022.3
20260509123623 7 298 0.0 0.0 0.00 0.00 0.00 99 1022.5
20260509123120 7 298 0.0 0.0 0.00 0.00 0.00 99 1022.2
20260509122615 7 298 0.0 0.0 0.00 0.00 0.00 99 1022.4
20260509122113 7 298 0.0 0.0 0.00 0.00 0.00 99 1022.3
20260509121609 7 298 0.0 0.0 0.00 0.00 0.00 99 1022.2
20260509121107 7 298 0.0 0.0 0.00 0.00 0.00 99 1022.3
20260509120605 7 298 0.0 0.0 0.00 0.00 0.00 99 1022.2
20260509115600 7 298 0.0 0.0 0.00 0.00 0.00 99 1022.4
20260509115057 7 298 0.0 0.0 0.00 0.00 0.00 99 1022.6
20260509114555 7 298 0.0 0.0 0.00 0.00 0.00 99 1022.4
20260509114054 7 298 0.0 0.0 0.00 0.00 0.00 99 1022.4
20260509113552 8 298 0.0 0.0 0.00 0.00 0.00 99 1022.1
20260509113049 8 298 0.0 0.0 0.00 0.00 0.00 99 1022.3
20260509112545 8 298 0.0 0.0 0.00 0.00 0.00 99 1022.6
20260509112042 8 298 0.0 0.0 0.00 0.00 0.00 99 1022.7
20260509111540 8 298 0.0 0.0 0.00 0.00 0.00 99 1022.5
20260509111037 8 298 0.0 0.0 0.00 0.00 0.00 99 1022.7
20260509110533 8 298 0.0 0.0 0.00 0.00 0.00 99 1022.7
20260509110031 8 298 0.0 0.0 0.00 0.00 0.00 99 1022.8
20260509105529 8 298 0.0 0.0 0.00 0.00 0.00 99 1022.7
20260509105026 8 298 0.0 0.0 0.00 0.00 0.00 99 1022.7
20260509104523 8 298 0.0 0.0 0.00 0.00 0.00 99 1023.0
20260509104020 8 298 0.0 0.0 0.00 0.00 0.00 98 1022.9
20260509103518 8 298 0.0 0.0 0.00 0.00 0.00 98 1022.6
20260509103016 8 298 0.0 0.0 0.00 0.00 0.00 98 1022.8
20260509102513 8 298 0.0 0.0 0.00 0.00 0.00 97 1022.8
20260509102009 8 298 0.0 0.0 0.00 0.00 0.00 97 1022.6
20260509101506 9 298 0.0 0.0 0.00 0.00 0.00 96 1022.7
20260509101003 9 298 0.0 0.0 0.00 0.00 0.00 96 1022.8
20260509100500 9 298 0.0 0.0 0.00 0.00 0.00 95 1022.7
20260509095956 10 298 0.0 0.0 0.00 0.00 0.00 95 1022.9
20260509095453 10 298 0.0 0.0 0.00 0.00 0.00 95 1023.0
20260509094951 10 297 0.0 0.0 0.00 0.00 0.00 95 1022.7
20260509094447 10 303 0.0 0.0 0.00 0.00 0.00 95 1022.9
20260509093944 10 305 0.0 0.0 0.00 0.00 0.00 95 1023.1
20260509093442 10 311 0.0 0.0 0.00 0.00 0.00 95 1022.9
20260509092940 10 301 0.0 0.0 0.00 0.00 0.00 95 1022.9
20260509092438 10 311 0.0 0.0 0.00 0.00 0.00 96 1022.9
20260509091936 10 315 0.0 0.0 0.00 0.00 0.00 96 1023.1
20260509091432 10 315 0.0 0.0 0.00 0.00 0.00 95 1023.3
20260509090930 10 315 0.0 0.0 0.00 0.00 0.00 95 1023.1
20260509090427 10 323 0.0 1.6 0.00 0.00 0.00 96 1023.2
20260509085925 10 311 0.0 0.0 0.00 0.00 0.00 95 1023.2
20260509085421 10 312 0.0 0.0 0.00 0.00 0.00 94 1023.4